EST,Max TemperatureF,Mean TemperatureF,Min TemperatureF,Max Dew PointF,MeanDew PointF,Min DewpointF,Max Humidity, Mean Humidity, Min Humidity, Max Sea Level PressureIn, Mean Sea Level PressureIn, Min Sea Level PressureIn, Max VisibilityMiles, Mean VisibilityMiles, Min VisibilityMiles, Max Wind SpeedMPH, Mean Wind SpeedMPH, Max Gust SpeedMPH,PrecipitationIn, CloudCover, Events, WindDirDegrees
2013-1-1,39,35,30,29,26,18,75,66,56,30.04,29.96,29.90,10,10,10,15,5,20,0.00,8,,310
2013-1-2,31,28,24,17,15,13,68,59,49,30.24,30.13,30.02,10,10,10,21,10,25,0.00,6,,316
2013-1-3,34,27,20,21,16,12,71,61,51,30.25,30.18,30.13,10,10,10,14,5,17,0.00,3,,302
2013-1-4,38,35,32,23,21,19,64,58,52,30.17,30.11,30.06,10,10,10,21,13,28,0.00,4,,277
2013-1-5,38,32,26,27,21,19,81,67,52,30.37,30.26,30.11,10,9,6,21,7,25,0.00,3,,312
2013-1-6,45,35,25,29,26,22,92,71,49,30.19,30.09,30.01,10,8,3,15,4,20,0.00,7,,268
2013-1-7,42,33,24,29,26,22,84,68,51,30.43,30.34,30.14,10,9,5,15,6,20,0.00,5,,298
2013-1-8,43,32,20,29,24,19,92,73,53,30.42,30.39,30.37,8,6,3,7,1,13,0.00,3,,335
2013-1-9,38,30,21,32,26,20,100,91,82,30.38,30.31,30.22,10,4,2,9,2,10,T,5,Rain,335
2013-1-10,46,40,33,31,27,25,89,69,49,30.58,30.51,30.37,10,10,10,17,6,23,0.00,4,,314
2013-1-11,43,36,29,40,34,27,100,82,64,30.50,30.26,30.10,10,6,0,10,3,13,0.32,8,Fog-Rain,121
2013-1-12,48,43,38,43,40,37,100,91,82,30.18,30.14,30.09,6,2,0,6,1,7,0.00,6,Fog,286
2013-1-13,46,43,40,46,43,39,100,96,92,30.13,30.05,29.97,1,0,0,8,3,10,0.02,8,Fog,124
2013-1-14,51,47,43,47,40,28,100,77,54,30.30,30.11,29.95,10,6,0,20,7,24,0.10,8,Fog-Rain,316
2013-1-15,38,36,33,36,30,26,92,78,64,30.36,30.28,30.19,10,9,4,13,4,17,0.32,8,Rain,1
2013-1-16,35,34,32,34,31,30,100,95,89,30.16,30.02,29.91,6,4,2,12,3,14,0.37,8,Rain-Snow,339
2013-1-17,40,37,34,34,29,26,92,76,59,30.14,30.07,29.99,10,9,5,20,7,25,0.00,8,,315
2013-1-18,36,32,27,26,12,6,70,53,36,30.48,30.37,30.08,10,10,10,30,11,37,0.00,2,,281
2013-1-19,53,38,23,27,23,15,72,51,29,30.38,30.15,29.88,10,10,10,21,10,32,0.00,3,,204
2013-1-20,51,39,27,28,20,11,64,45,25,30.10,29.90,29.77,10,10,10,32,16,41,0.00,1,,275
2013-1-21,35,29,22,27,16,9,63,55,46,30.12,29.99,29.86,10,9,1,22,7,28,0.01,6,Snow,308
2013-1-22,24,18,12,7,-1,-4,59,49,39,30.29,30.14,29.95,10,10,9,28,17,33,T,2,Snow,305
2013-1-23,21,16,11,3,1,-1,67,55,43,30.32,30.25,30.17,10,10,10,18,8,22,0.00,3,,275
2013-1-24,26,20,14,10,4,-3,88,60,32,30.49,30.30,30.12,10,9,2,23,10,30,T,5,Snow,327
2013-1-25,21,18,14,16,8,-1,84,65,45,30.50,30.26,30.07,10,6,0,14,5,16,0.08,8,Fog-Snow,146
2013-1-26,27,21,14,17,14,11,88,73,57,30.43,30.24,30.10,10,8,3,12,3,15,T,6,Snow,334
2013-1-27,34,22,10,21,15,7,92,70,47,30.58,30.52,30.45,10,8,4,10,2,13,0.00,4,,310
2013-1-28,35,30,25,34,29,18,100,84,68,30.47,30.23,30.04,7,2,1,8,3,12,0.20,8,Rain-Snow,129
2013-1-29,56,45,33,47,38,32,100,86,72,30.13,30.06,29.98,5,3,1,7,1,16,0.00,7,Fog,111
2013-1-30,64,50,35,56,48,36,100,89,78,29.95,29.62,29.24,10,3,0,31,5,38,1.25,8,Fog-Rain,141
2013-1-31,53,41,29,52,26,11,100,72,43,29.86,29.53,29.15,10,9,0,37,20,53,0.48,6,Fog-Rain,277